Location: Amsterdam
(30.7274°N, 84.4357°W)
Time: 19:31:59
(UTC+00:00)

Courier 1B Rocket - Pass Details

Date: 11 February 2026
Orbit: 920 x 1201 km, 28.2° (Epoch: 10 March)

Event Time Altitude Azimuth Distance (km) Brightness Sun altitude
Rises 01:34:45 0° 217° (SW) 3,590 8.4 -29.1°
Reaches altitude 10° 01:37:50 10° 204° (SSW) 2,680 7.5 -29.7°
Enters shadow 01:40:48 21° 178° (S) 2,060 6.6 -30.4°
Maximum altitude 01:42:52 24° 152° (SSE) 1,929 - -30.8°
Drops below altitude 10° 01:48:08 10° 101° (ESE) 2,831 - -31.9°
Sets 01:51:29 0° 89° (E) 3,839 - -32.7°
